Regional Weather Roundup
Issued by NWS

Home | Current Version | Previous Version | Graphics & Text | Print | Product List | Glossary On
Versions: 1 2 3 4 5 6 7 8 9 10 11 12 13 14 15 16 17 18 19 20 21 22 23 24 25 26 27 28
000
ASUS45 KCYS 220810
RWRWY

WYOMING REGIONAL WEATHER ROUNDUP
NATIONAL WEATHER SERVICE CHEYENNE WY
200 AM MDT TUE MAY 22 2018

NOTE:  "FAIR" INDICATES FEW OR NO CLOUDS BELOW 12,000 FEET
WITH NO SIGNIFICANT WEATHER AND/OR OBSTRUCTIONS TO VISIBILITY.

WYZ001-220900-
YELLOWSTONE NATIONAL PARK

CITY           SKY/WX    TMP DP  RH WIND       PRES   REMARKS
LK YELLOWSTONE   N/A     33  30  88 CALM      30.15S
W YELLOWSTONE  NOT AVBL

$$
WYZ002>013-054>058-071-098>099-220900-
NORTHERN WYOMING

CITY           SKY/WX    TMP DP  RH WIND       PRES   REMARKS
JACKSON        FAIR      41  39  93 N5        30.08S
CODY           FAIR      52  45  77 SW3       30.02F
GREYBULL       FAIR      51  48  89 CALM      29.94F
WORLAND        FAIR      48  47  96 S8        29.96S
SHERIDAN       FAIR      53  49  86 CALM      29.97F
BUFFALO        FAIR      50  44  80 SW9       30.01R
GILLETTE       FAIR      53  44  71 W5        29.96R
NEWCASTLE      FAIR      55  41  58 CALM      29.94F

$$
WYZ014>020-022>026-101>103-220900-
CENTRAL WYOMING

CITY           SKY/WX    TMP DP  RH WIND       PRES   REMARKS
BIG PINEY      FAIR      41  37  86 N3        30.06F
PINEDALE       FAIR      41  37  87 NW8       30.07F
DUBOIS         FAIR      39  34  81 W7        30.10S WCI  34
LANDER         FAIR      53  40  61 W15       29.99F
RIVERTON       FAIR      50  43  77 W7        30.00F
CASPER         FAIR      49  47  93 NE3       29.99F
DOUGLAS        FAIR      50  47  89 S5        29.99F

$$
WYZ021-027>030-104>119-220900-
SOUTHERN WYOMING

CITY           SKY/WX    TMP DP  RH WIND       PRES   REMARKS
EVANSTON       FAIR      51  37  58 NE9       30.03F
KEMMERER       FAIR      43  34  70 N5        30.07S
FORT BRIDGER   FAIR      50  38  62 N5        30.08S
ROCK SPRINGS   FAIR      48  39  71 S6        30.04S
DIXON          FAIR      48  31  51 NE10      30.02F
RAWLINS        FAIR      53  41  63 NE9       30.02F
SARATOGA       FAIR      50  37  62 SE7       30.04S
LARAMIE        FAIR      48  44  86 S7        30.06F
CHEYENNE       FAIR      49  46  90 NW5       30.03S
TORRINGTON     FAIR      52  52 100 NE10      29.94F
PINE BLUFFS    FAIR      50  50 100 N5        29.99S

$$




USA.gov is the U.S. government's official web portal to all federal, state and local government web resources and services.